TSC598 CYUL-MDPC

Flight info

Callsign TSC598
Flight time N/A
Altitude 41000
Route FAWNS DCT BUGSY DCT NIPPY DCT PONCT Q437 GANDE DCT JFK DCT SHIPP DCT SPDEY DCT DOGRS DCT BLUUU DCT DUMPR DCT ICCEY DCT OHRYN DCT GMENN DCT BEHHR/M080F410 DCT ROLLE DCT ATUGI L454 LUCTI/N0457F410 DCT FIPEK DCT BETIR BETIR1W
Aircraft A333/H-SDE3GHIJ2J3J5M1RVWXY/LB2D1

Departure

Time N/A
Airport Montreal / Pierre Elliott Trudeau International Airport (CYUL)

Arrival

Time 2026-03-22 23:00
Airport Punta Cana International Airport (MDPC)
Time Latitude Longitude Altitude Speed Heading
2026-03-22 22:28 21.04341 -68.03140 41051 ft 473 kts 176°
2026-03-22 22:28 20.97932 -68.01470 41056 ft 473 kts 176°
2026-03-22 22:29 20.91537 -67.99804 41047 ft 472 kts 176°
2026-03-22 22:29 20.88335 -67.99224 41048 ft 457 kts 187°
2026-03-22 22:29 20.85268 -67.99331 41048 ft 438 kts 199°
2026-03-22 22:30 20.82357 -68.00103 41049 ft 424 kts 208°
2026-03-22 22:30 20.79576 -68.01169 40960 ft 423 kts 210°
2026-03-22 22:30 20.76850 -68.02282 40548 ft 423 kts 210°
2026-03-22 22:30 20.74110 -68.03415 40050 ft 422 kts 211°
2026-03-22 22:31 20.71372 -68.04545 39594 ft 420 kts 211°
2026-03-22 22:31 20.68635 -68.05673 39124 ft 418 kts 211°
2026-03-22 22:31 20.65921 -68.06791 38622 ft 415 kts 211°
2026-03-22 22:31 20.63266 -68.07883 38091 ft 413 kts 211°
2026-03-22 22:32 20.60580 -68.08988 37558 ft 411 kts 211°
2026-03-22 22:32 20.58777 -68.09730 37210 ft 410 kts 211°
2026-03-22 22:32 20.56138 -68.10816 36715 ft 412 kts 211°
2026-03-22 22:32 20.53457 -68.11921 36224 ft 414 kts 211°
2026-03-22 22:33 20.50750 -68.13035 35745 ft 418 kts 211°
2026-03-22 22:33 20.47122 -68.14527 35113 ft 423 kts 211°
2026-03-22 22:33 20.45258 -68.15292 34815 ft 425 kts 211°
2026-03-22 22:33 20.42522 -68.16414 34365 ft 428 kts 211°
2026-03-22 22:34 20.39721 -68.17563 33887 ft 431 kts 211°
2026-03-22 22:34 20.36911 -68.18715 33390 ft 434 kts 211°
2026-03-22 22:34 20.34080 -68.19875 32859 ft 437 kts 210°
2026-03-22 22:34 20.31229 -68.21042 32362 ft 441 kts 210°
2026-03-22 22:35 20.28349 -68.22221 31878 ft 444 kts 210°
2026-03-22 22:35 20.25444 -68.23410 31397 ft 447 kts 209°
2026-03-22 22:35 20.22563 -68.24588 30933 ft 450 kts 209°
2026-03-22 22:35 20.19620 -68.25790 30472 ft 453 kts 209°
2026-03-22 22:36 20.16671 -68.26995 30008 ft 455 kts 208°
2026-03-22 22:36 20.13709 -68.28203 29457 ft 454 kts 208°
2026-03-22 22:36 20.10765 -68.29403 28923 ft 452 kts 208°
2026-03-22 22:36 20.07840 -68.30594 28407 ft 448 kts 208°
2026-03-22 22:37 20.04941 -68.31776 27902 ft 444 kts 207°
2026-03-22 22:37 20.02096 -68.32935 27407 ft 441 kts 207°
2026-03-22 22:37 19.99237 -68.34101 26914 ft 438 kts 207°
2026-03-22 22:37 19.96394 -68.35259 26429 ft 435 kts 207°
2026-03-22 22:38 19.93565 -68.36412 25953 ft 432 kts 207°
2026-03-22 22:38 19.90757 -68.37556 25481 ft 430 kts 206°
2026-03-22 22:38 19.88003 -68.38677 25032 ft 427 kts 206°
2026-03-22 22:38 19.85225 -68.39808 24575 ft 425 kts 206°
2026-03-22 22:39 19.82464 -68.40931 24131 ft 422 kts 206°
2026-03-22 22:39 19.79731 -68.42043 23688 ft 420 kts 205°
2026-03-22 22:39 19.76999 -68.43153 23171 ft 418 kts 205°
2026-03-22 22:39 19.74319 -68.44242 22652 ft 414 kts 205°
2026-03-22 22:40 19.71639 -68.45331 22139 ft 412 kts 205°
2026-03-22 22:40 19.68967 -68.46416 21644 ft 409 kts 204°
2026-03-22 22:40 19.66320 -68.47490 21154 ft 407 kts 204°
2026-03-22 22:40 19.63680 -68.48562 20670 ft 404 kts 204°
2026-03-22 22:41 19.61060 -68.49625 20178 ft 402 kts 204°
2026-03-22 22:41 19.58447 -68.50684 19725 ft 400 kts 204°
2026-03-22 22:41 19.55888 -68.51721 19372 ft 397 kts 204°
2026-03-22 22:41 19.53299 -68.52770 19136 ft 395 kts 203°
2026-03-22 22:42 19.50769 -68.53794 18906 ft 382 kts 203°
2026-03-22 22:42 19.48317 -68.54785 18680 ft 372 kts 203°
2026-03-22 22:42 19.45936 -68.55749 18455 ft 371 kts 203°
2026-03-22 22:42 19.43496 -68.56739 18215 ft 377 kts 203°
2026-03-22 22:43 19.41035 -68.57735 17953 ft 378 kts 203°
2026-03-22 22:43 19.38572 -68.58732 17696 ft 378 kts 203°
2026-03-22 22:43 19.36120 -68.59727 17437 ft 376 kts 205°
2026-03-22 22:43 19.33870 -68.61080 17165 ft 370 kts 221°
2026-03-22 22:44 19.32062 -68.62960 16856 ft 367 kts 229°
2026-03-22 22:44 19.30359 -68.64971 16534 ft 366 kts 230°
2026-03-22 22:44 19.28676 -68.66983 16221 ft 364 kts 230°
2026-03-22 22:44 19.26985 -68.68992 15913 ft 364 kts 230°
2026-03-22 22:45 19.25300 -68.70983 15592 ft 362 kts 230°
2026-03-22 22:45 19.23616 -68.72963 15283 ft 360 kts 229°
2026-03-22 22:45 19.21939 -68.74931 14975 ft 360 kts 230°
2026-03-22 22:45 19.20281 -68.76873 14684 ft 359 kts 230°
2026-03-22 22:46 19.18607 -68.78832 14380 ft 358 kts 229°
2026-03-22 22:46 19.16939 -68.80782 14079 ft 356 kts 230°
2026-03-22 22:46 19.15272 -68.82698 13750 ft 354 kts 226°
2026-03-22 22:46 19.13223 -68.84126 13362 ft 355 kts 202°
2026-03-22 22:47 19.10806 -68.84655 12977 ft 356 kts 187°
2026-03-22 22:47 19.08361 -68.84846 12613 ft 356 kts 186°
2026-03-22 22:47 19.05890 -68.85022 12239 ft 354 kts 186°
2026-03-22 22:47 19.03436 -68.85223 11880 ft 351 kts 186°
2026-03-22 22:48 19.01026 -68.85442 11504 ft 342 kts 188°
2026-03-22 22:48 18.98710 -68.85666 11132 ft 335 kts 188°
2026-03-22 22:48 18.96397 -68.85898 10754 ft 332 kts 188°
2026-03-22 22:48 18.94102 -68.86132 10377 ft 330 kts 187°
2026-03-22 22:49 18.91812 -68.86367 10006 ft 335 kts 187°
2026-03-22 22:49 18.89438 -68.86615 9621 ft 348 kts 188°
2026-03-22 22:49 18.87013 -68.86869 9201 ft 350 kts 188°
2026-03-22 22:49 18.84592 -68.87088 8798 ft 348 kts 182°
2026-03-22 22:50 18.82250 -68.86597 8404 ft 350 kts 158°
2026-03-22 22:50 18.80278 -68.85092 8000 ft 352 kts 133°
2026-03-22 22:50 18.78863 -68.83017 7628 ft 344 kts 123°
2026-03-22 22:50 18.77577 -68.80937 7241 ft 329 kts 124°
2026-03-22 22:51 18.76314 -68.79008 6854 ft 310 kts 126°
2026-03-22 22:51 18.75080 -68.77219 6496 ft 301 kts 127°
2026-03-22 22:51 18.73853 -68.75498 6135 ft 286 kts 127°
2026-03-22 22:51 18.72655 -68.73854 5829 ft 280 kts 127°
2026-03-22 22:52 18.71455 -68.72230 5519 ft 279 kts 126°
2026-03-22 22:52 18.70247 -68.70614 5225 ft 280 kts 126°
2026-03-22 22:52 18.69039 -68.69005 4947 ft 279 kts 126°
2026-03-22 22:52 18.67839 -68.67402 4653 ft 275 kts 126°
2026-03-22 22:53 18.66680 -68.65858 4339 ft 262 kts 124°
2026-03-22 22:53 18.65577 -68.64388 4038 ft 257 kts 124°
2026-03-22 22:53 18.64478 -68.62920 3748 ft 254 kts 125°
2026-03-22 22:53 18.63389 -68.61468 3483 ft 246 kts 124°
2026-03-22 22:54 18.62338 -68.60069 3319 ft 241 kts 124°
2026-03-22 22:54 18.61309 -68.58706 3131 ft 235 kts 126°
2026-03-22 22:54 18.60086 -68.57582 3000 ft 235 kts 148°
2026-03-22 22:54 18.58560 -68.56957 2861 ft 236 kts 160°
2026-03-22 22:55 18.56988 -68.56487 2692 ft 233 kts 161°
2026-03-22 22:55 18.55435 -68.56044 2530 ft 228 kts 160°
2026-03-22 22:55 18.54044 -68.55361 2434 ft 214 kts 136°
2026-03-22 22:55 18.53204 -68.54180 2372 ft 200 kts 104°
2026-03-22 22:56 18.53058 -68.52781 2319 ft 188 kts 77°
2026-03-22 22:56 18.53340 -68.51482 2289 ft 175 kts 70°
2026-03-22 22:56 18.53684 -68.50289 2244 ft 166 kts 69°
2026-03-22 22:56 18.54014 -68.49172 2121 ft 156 kts 68°
2026-03-22 22:57 18.54336 -68.48077 1964 ft 157 kts 68°
2026-03-22 22:57 18.54645 -68.46997 1754 ft 149 kts 69°
2026-03-22 22:57 18.54923 -68.45991 1547 ft 137 kts 68°
2026-03-22 22:57 18.55177 -68.45058 1342 ft 128 kts 68°
2026-03-22 22:58 18.55424 -68.44165 1191 ft 126 kts 68°
2026-03-22 22:58 18.55657 -68.43293 1025 ft 126 kts 70°
2026-03-22 22:58 18.55902 -68.42396 884 ft 128 kts 68°
2026-03-22 22:58 18.56152 -68.41498 721 ft 127 kts 67°
2026-03-22 22:59 18.56398 -68.40607 584 ft 127 kts 65°
2026-03-22 22:59 18.56646 -68.39713 416 ft 127 kts 72°
2026-03-22 22:59 18.56887 -68.38819 239 ft 128 kts 70°
2026-03-22 22:59 18.57136 -68.37911 55 ft 125 kts 70°
2026-03-22 23:00 18.57337 -68.37184 49 ft 68 kts 73°
2026-03-22 23:00 18.57405 -68.36937 49 ft 27 kts 74°
2026-03-22 23:00 18.57471 -68.36701 47 ft 40 kts 74°
2026-03-22 23:00 18.57557 -68.36386 47 ft 49 kts 74°
2026-03-22 23:01 18.57602 -68.36091 54 ft 27 kts 94°
2026-03-22 23:01 18.57582 -68.35991 48 ft 10 kts 105°
2026-03-22 23:01 18.57552 -68.35911 50 ft 13 kts 118°
2026-03-22 23:01 18.57479 -68.35849 51 ft 15 kts 160°
2026-03-22 23:02 18.57370 -68.35832 49 ft 17 kts 176°
2026-03-22 23:02 18.57244 -68.35825 48 ft 19 kts 176°
2026-03-22 23:02 18.57101 -68.35816 48 ft 22 kts 176°
2026-03-22 23:02 18.56988 -68.35829 49 ft 9 kts 229°
2026-03-22 23:03 18.56967 -68.35896 48 ft 11 kts 263°
2026-03-22 23:03 18.56959 -68.35986 54 ft 14 kts 265°
2026-03-22 23:03 18.56950 -68.36094 48 ft 16 kts 264°
2026-03-22 23:03 18.56939 -68.36219 49 ft 18 kts 264°
2026-03-22 23:04 18.56927 -68.36360 53 ft 20 kts 265°
2026-03-22 23:04 18.56897 -68.36431 47 ft 6 kts 203°
2026-03-22 23:04 18.56847 -68.36433 52 ft 8 kts 176°
2026-03-22 23:04 18.56784 -68.36429 50 ft 10 kts 176°
2026-03-22 23:05 18.56709 -68.36425 55 ft 12 kts 177°
2026-03-22 23:05 18.56610 -68.36416 52 ft 16 kts 173°
2026-03-22 23:05 18.56500 -68.36390 49 ft 16 kts 153°
2026-03-22 23:05 18.56471 -68.36287 50 ft 16 kts 85°
2026-03-22 23:06 18.56463 -68.36232 52 ft 1 kts 157°
2026-03-22 23:06 18.56443 -68.36228 51 ft 4 kts 168°
2026-03-22 23:06 18.56404 -68.36223 52 ft 4 kts 174°
2026-03-22 23:06 18.56395 -68.36222 53 ft 0 kts 175°
2026-03-22 23:07 18.56390 -68.36222 54 ft 0 kts 175°